{"data":{"norad_id":56148,"epoch":"2026-05-25T03:16:18.021216Z","epoch_age_seconds":66734,"freshness":"FRESH","line1":"1 56148U 23046BJ  26145.13631969  .00000408  00000+0  24337-4 0  9999","line2":"2 56148  43.0020  38.5611 0000777 262.5626  97.5138 15.27576003174314","mean_motion":15.27576003,"eccentricity":7.77e-5,"inclination_deg":43.002,"raan_deg":38.5611,"arg_perigee_deg":262.5626,"mean_anomaly_deg":97.5138,"bstar":2.4337e-5,"rev_number":17431,"period_min":94.266995368609,"perigee_km":482.52794943205,"apogee_km":483.59417961128,"semimajor_km":6861.1980645217,"source":"CELESTRAK","updated_at":"2026-05-25T13:38:17.963987Z"}}